[[[{"header":{"parameterUnit":"kt","parameterCategory":2,"dx":1,"dy":1,"la1":30.253999710083008,"la2":30.299108505249023,"lo1":-89.0895004272461,"lo2":-89.04439544677734,"nx":28,"ny":28,"refTime":"2022-10-16T21:00:00:Z","depth":0,"parameterNumber":1,"parameterNumberName":"U-component_of_WINDS"},"data":[-1.5442,-1.5506,-1.5508,-1.5581,-1.5595,-1.5646,-1.5665,-1.5689,-1.5709,-1.5769,-1.5804,-1.5813,-1.5834,-1.5877,-1.5915,-1.5918,-1.5935,-1.5955,-1.5956,-1.5863,-1.585,-1.5838,-1.5823,-1.5959,-1.5959,-1.6053,-1.6054,-1.6055,-1.5372,-1.5386,-1.5426,-1.5465,-1.5499,-1.548,-1.551,-1.554,-1.5586,-1.5611,-1.5646,-1.57,-1.5742,-1.5757,-1.5799,-1.5829,-1.5823,-1.584,-1.5839,-1.5843,-1.5742,-1.5727,-1.5844,-1.5844,-1.5844,-1.5844,-1.5844,-1.5844,-1.5244,-1.5282,-1.5307,-1.535,-1.537,-1.5397,-1.5434,-1.5444,-1.5483,-1.5527,-1.5522,-1.5574,-1.56,-1.5652,-1.567,-1.5711,-1.5693,-1.5713,-1.5718,-1.5724,-1.5729,-1.5594,-1.5718,-1.5717,-1.5717,-1.5717,-1.5717,0,-1.5151,-1.515,-1.5189,-1.5228,-1.5259,-1.529,-1.5318,-1.5341,-1.5341,-1.5373,-1.542,-1.5448,-1.5502,-1.5547,-1.5587,-1.5602,-1.5588,-1.5586,-1.56,-1.5605,-1.5603,-1.5606,-1.5443,-1.5583,-1.5582,-1.5582,-1.5581,-1.558,-1.5024,-1.5068,-1.5096,-1.5122,-1.5139,-1.5182,-1.5208,-1.5204,-1.5233,-1.5267,-1.5301,-1.5346,-1.5382,-1.5457,-1.547,-1.5511,-1.5505,-1.5558,-1.5511,-1.5512,-1.5508,-1.5506,-1.5511,-1.5568,-1.557,-1.5571,-1.5572,0,-1.4952,-1.4956,-1.5025,-1.5049,-1.5056,-1.5102,-1.5123,-1.5161,-1.5167,-1.522,-1.5232,-1.5243,-1.5289,-1.5293,-1.5348,-1.5348,-1.5425,-1.5417,-1.5416,-1.5415,-1.5465,-1.5461,-1.5622,-1.5643,-1.5501,-1.5502,-1.5503,0,-1.4846,-1.4904,-1.4907,-1.4947,-1.5011,-1.5006,-1.507,-1.5082,-1.5105,-1.5147,-1.513,-1.517,-1.5169,-1.521,-1.5211,-1.5274,-1.5284,-1.5289,-1.529,-1.5292,-1.5292,-1.5309,-1.5304,-1.5286,-1.5285,-1.5285,-1.5284,0,-1.4735,-1.4804,-1.4869,-1.4885,-1.4917,-1.4948,-1.4963,-1.4989,-1.5015,-1.5049,-1.5066,-1.5106,-1.5129,-1.5161,-1.5163,-1.5131,-1.524,-1.5196,-1.5245,-1.5245,-1.5272,-1.527,-1.5409,-1.5283,-1.5283,-1.5283,-1.5282,0,-1.4651,-1.4685,-1.4778,-1.4804,-1.4823,-1.4866,-1.4905,-1.4943,-1.4971,-1.4975,-1.5002,-1.4993,-1.5048,-1.5004,-1.5081,-1.5038,-1.5062,-1.5071,-1.5075,-1.5082,-1.5034,-1.5115,-1.5245,-1.526,-1.5086,-1.5084,-1.5083,0,-1.4523,-1.4618,-1.4616,-1.4704,-1.4749,-1.4728,-1.4775,-1.4801,-1.481,-1.4849,-1.4859,-1.4904,-1.4873,-1.4888,-1.4924,-1.4937,-1.4992,-1.493,-1.4988,-1.499,-1.4983,-1.5102,-1.5122,-1.5215,-1.5062,-1.5064,-1.5065,0,-1.4426,-1.4464,-1.448,-1.45,-1.4533,-1.4571,-1.4625,-1.4669,-1.4695,-1.4726,-1.4772,-1.4835,-1.4814,-1.484,-1.4837,-1.4875,-1.4955,-1.4848,-1.4849,-1.4869,-1.5051,-1.5069,-1.5085,-1.4944,-1.4947,-1.4949,-1.5049,0,-1.43,-1.4348,-1.4391,-1.4435,-1.4464,-1.452,-1.4525,-1.4555,-1.4549,-1.4558,-1.4625,-1.4649,-1.4695,-1.4713,-1.4708,-1.4794,-1.4781,-1.4759,-1.4719,-1.4797,-1.483,-1.4843,-1.4669,-1.4668,-1.4667,-1.4666,0,0,-1.4178,-1.4247,-1.4244,-1.4297,-1.4321,-1.43,-1.436,-1.4381,-1.4427,-1.4445,-1.4422,-1.4515,-1.4536,-1.4618,-1.4642,-1.4661,-1.4677,-1.465,-1.4759,-1.477,-1.4779,-1.4815,-1.4829,-1.4664,-1.4664,-1.4664,-1.4663,0,-1.4134,-1.4154,-1.4212,-1.4234,-1.4268,-1.4274,-1.4288,-1.4317,-1.4326,-1.4392,-1.4375,-1.4416,-1.4491,-1.4516,-1.4538,-1.4639,-1.4626,-1.4653,-1.4706,-1.4749,-1.4761,-1.4771,-1.4808,-1.4822,-1.4661,-1.4661,-1.4661,0,-1.404,-1.4061,-1.409,-1.4145,-1.4167,-1.4214,-1.4172,-1.4224,-1.4258,-1.4235,-1.4301,-1.4315,-1.4349,-1.4425,-1.4459,-1.444,-1.4579,-1.4536,-1.4542,-1.4547,-1.459,-1.4604,-1.4616,-1.4453,-1.4452,-1.4451,0,0,-1.4002,-1.4046,-1.4069,-1.4136,-1.4151,-1.4162,-1.4187,-1.4185,-1.4215,-1.4227,-1.4246,-1.4276,-1.4319,-1.4349,-1.439,-1.4473,-1.448,-1.451,-1.452,-1.4528,-1.4537,-1.4582,-1.4596,-1.4448,-1.4448,-1.4448,0,0,-1.3984,-1.4013,-1.4002,-1.408,-1.4108,-1.4137,-1.4178,-1.4165,-1.4203,-1.4198,-1.4197,-1.4205,-1.4276,-1.4291,-1.4252,-1.4377,-1.4337,-1.4346,-1.4364,-1.4377,-1.4387,-1.4382,-1.4216,0,0,0,0,0,-1.3942,-1.4009,-1.3998,-1.4012,-1.4083,-1.4142,-1.4151,-1.4151,-1.4123,-1.4155,-1.4169,-1.4152,-1.427,-1.4236,-1.425,-1.4294,-1.4412,-1.4418,-1.4425,-1.4467,-1.448,-1.4491,0,0,0,0,0,0,-1.3948,-1.3965,-1.3997,-1.4027,-1.4043,-1.4139,-1.4091,-1.4093,-1.4119,-1.4115,-1.415,-1.4153,-1.4155,-1.4228,-1.4241,-1.4283,-1.4211,-1.4414,-1.442,-1.4425,-1.4472,-1.4482,-1.4492,0,0,0,0,0,-1.3952,-1.3966,-1.4079,-1.4026,-1.404,-1.4056,-1.4089,-1.409,-1.411,-1.4132,-1.4135,-1.4108,-1.4156,-1.4167,-1.4236,-1.4277,-1.4202,-1.4207,-1.4418,-1.4422,-1.4426,-1.4477,0,0,0,0,0,0,-1.3955,-1.3968,-1.4082,-1.4086,-1.4001,-1.4051,-1.4059,-1.4088,-1.4126,-1.4129,-1.409,-1.4087,-1.4158,-1.4166,-1.4175,-1.4275,-1.4195,-1.42,-1.4203,-1.4421,-1.4425,-1.4428,0,0,0,0,0,0,-1.396,-1.3971,-1.4084,-1.4053,-1.4053,-1.4046,-1.4053,-1.4112,-1.4127,-1.4082,-1.408,-1.4088,-1.4146,-1.4166,-1.4172,-1.4264,-1.4189,-1.4194,-1.4197,-1.4199,-1.4424,-1.4427,0,0,0,0,0,0,-1.3965,-1.3974,-1.4052,-1.4052,-1.4052,-1.41,-1.4098,-1.4171,-1.4099,-1.4081,-1.4092,-1.4089,-1.4146,-1.4152,-1.4171,-1.426,-1.4263,-1.4189,-1.4193,-1.4195,-1.4196,0,0,0,0,0,0,0,-1.3969,-1.3904,-1.4057,-1.4052,-1.4052,-1.4125,-1.4127,-1.4128,-1.4098,-1.4095,-1.4093,-1.409,-1.4163,-1.4168,-1.4173,-1.4256,0,0,-1.4189,-1.4191,0,0,0,0,0,0,0,0,-1.39,-1.3903,-1.4057,-1.4058,-1.4059,-1.4126,-1.4127,-1.4128,-1.4098,-1.4095,-1.4093,-1.4091,-1.4164,-1.4168,-1.4172,0,0,0,0,0,0,0,0,0,0,0,0,0,0,0,-1.4057,-1.4058,0,-1.4126,-1.4127,-1.4127,-1.4097,-1.4096,-1.4094,-1.4092,-1.4165,-1.4168,-1.4172,0,0,0,0,0,0,0,0,0,0,0,0,0,0,0,0,0,0,0,0,0,0,0,0,0,0,0,0,0,0,0,0,0,0,0,0,0,0,0,0,0,0,0,0,0,0,0,0,0,0,0,0,0,0,0,0,0,0,0,0,0,0,0,0,0,0,0,0,0]}],[{"header":{"parameterUnit":"kt","parameterCategory":2,"dx":1,"dy":1,"la1":30.253999710083008,"la2":30.299108505249023,"lo1":-89.0895004272461,"lo2":-89.04439544677734,"nx":28,"ny":28,"refTime":"2022-10-16T21:00:00:Z","depth":0,"parameterNumber":2,"parameterNumberName":"V-component_of_WINDS"},"data":[-15.6069,-15.6265,-15.6278,-15.6505,-15.6553,-15.6709,-15.6767,-15.6843,-15.6905,-15.7088,-15.7195,-15.7221,-15.7283,-15.7408,-15.752,-15.7528,-15.7575,-15.7639,-15.7637,-15.7351,-15.7311,-15.7274,-15.723,-15.7649,-15.7649,-15.7933,-15.7935,-15.7937,-15.5862,-15.5914,-15.6037,-15.6164,-15.6269,-15.6217,-15.6311,-15.6401,-15.654,-15.6617,-15.6721,-15.6881,-15.7006,-15.7046,-15.7167,-15.7254,-15.7234,-15.7286,-15.728,-15.729,-15.6984,-15.6938,-15.7301,-15.7301,-15.7301,-15.7301,-15.7301,-15.7301,-15.5487,-15.5604,-15.5688,-15.5822,-15.5888,-15.5971,-15.6082,-15.6114,-15.6231,-15.6362,-15.6348,-15.6503,-15.6578,-15.6725,-15.6774,-15.6893,-15.6834,-15.6893,-15.6908,-15.6923,-15.694,-15.6532,-15.6912,-15.6911,-15.691,-15.691,-15.6909,0,-15.5216,-15.5219,-15.5337,-15.546,-15.5556,-15.565,-15.5737,-15.5806,-15.5805,-15.5901,-15.6041,-15.6121,-15.6279,-15.6407,-15.652,-15.6559,-15.6508,-15.6503,-15.6543,-15.6554,-15.6551,-15.6556,-15.6058,-15.6491,-15.6487,-15.6485,-15.6483,-15.6481,-15.484,-15.4974,-15.5065,-15.5146,-15.5196,-15.5327,-15.5406,-15.5395,-15.5479,-15.5581,-15.5681,-15.5811,-15.5914,-15.613,-15.6158,-15.6273,-15.6249,-15.6415,-15.6266,-15.6272,-15.6253,-15.6246,-15.6259,-15.6443,-15.6448,-15.6452,-15.6455,0,-15.4628,-15.4643,-15.4852,-15.4927,-15.4949,-15.5089,-15.515,-15.5263,-15.5279,-15.5436,-15.5471,-15.5495,-15.5628,-15.563,-15.5781,-15.5777,-15.6002,-15.5975,-15.5978,-15.5972,-15.6121,-15.6108,-15.6602,-15.6666,-15.6231,-15.6235,-15.6238,0,-15.4312,-15.4487,-15.4499,-15.462,-15.4813,-15.4798,-15.4988,-15.5021,-15.5085,-15.5209,-15.5153,-15.5269,-15.5252,-15.5367,-15.5362,-15.5545,-15.5573,-15.5581,-15.5577,-15.5587,-15.5586,-15.5628,-15.5608,-15.5562,-15.556,-15.5558,-15.5556,0,-15.3978,-15.4188,-15.4384,-15.4433,-15.4527,-15.4619,-15.4661,-15.4732,-15.4808,-15.4905,-15.4954,-15.5067,-15.5129,-15.5216,-15.5209,-15.5108,-15.5433,-15.5292,-15.5441,-15.5441,-15.5512,-15.5508,-15.5946,-15.5553,-15.5552,-15.5551,-15.555,0,-15.3725,-15.3829,-15.411,-15.4187,-15.4242,-15.4369,-15.4482,-15.4591,-15.467,-15.4676,-15.4751,-15.4713,-15.4873,-15.4734,-15.4954,-15.4825,-15.4889,-15.491,-15.4921,-15.4935,-15.478,-15.5027,-15.5444,-15.5488,-15.4949,-15.4944,-15.4939,0,-15.3339,-15.3626,-15.3616,-15.3881,-15.4013,-15.3944,-15.4084,-15.4155,-15.4174,-15.4286,-15.4305,-15.4432,-15.4329,-15.4368,-15.4476,-15.45,-15.4667,-15.4477,-15.4635,-15.4641,-15.4619,-15.5003,-15.5065,-15.5353,-15.4875,-15.4882,-15.4887,0,-15.3042,-15.3156,-15.3204,-15.326,-15.3354,-15.3463,-15.3623,-15.3747,-15.3823,-15.3907,-15.404,-15.4216,-15.4146,-15.4211,-15.419,-15.4303,-15.4553,-15.4211,-15.4212,-15.4273,-15.4842,-15.4901,-15.495,-15.4514,-15.4522,-15.4528,-15.4836,0,-15.2659,-15.2802,-15.2932,-15.3056,-15.314,-15.3305,-15.3309,-15.3397,-15.337,-15.3386,-15.358,-15.3635,-15.3756,-15.381,-15.3783,-15.4041,-15.3998,-15.392,-15.3784,-15.4035,-15.4137,-15.4178,-15.3633,-15.3629,-15.3626,-15.3623,0,0,-15.2286,-15.2492,-15.2473,-15.263,-15.27,-15.2623,-15.2799,-15.2857,-15.2976,-15.3025,-15.2949,-15.3206,-15.3253,-15.3488,-15.3566,-15.3614,-15.366,-15.3571,-15.3915,-15.3948,-15.3978,-15.4087,-15.413,-15.3617,-15.3615,-15.3614,-15.3613,0,-15.2147,-15.2203,-15.2379,-15.2439,-15.2528,-15.2537,-15.2579,-15.2651,-15.2669,-15.2859,-15.279,-15.2905,-15.3109,-15.3169,-15.3226,-15.3544,-15.3483,-15.358,-15.3753,-15.3881,-15.3918,-15.3951,-15.4066,-15.4107,-15.3605,-15.3605,-15.3606,0,-15.1855,-15.1911,-15.1996,-15.2152,-15.2208,-15.2344,-15.2204,-15.2353,-15.2452,-15.2355,-15.2544,-15.2574,-15.2652,-15.2873,-15.2972,-15.2905,-15.3322,-15.3189,-15.3211,-15.3221,-15.3345,-15.339,-15.343,-15.2906,-15.2903,-15.2901,0,0,-15.1734,-15.1867,-15.1921,-15.2122,-15.2163,-15.2177,-15.2249,-15.2229,-15.2304,-15.2334,-15.2371,-15.2443,-15.2561,-15.2639,-15.2749,-15.2992,-15.3006,-15.3103,-15.3136,-15.3163,-15.3188,-15.332,-15.3364,-15.2892,-15.2892,-15.2892,0,0,-15.1675,-15.1747,-15.1708,-15.1942,-15.2018,-15.2081,-15.2203,-15.2154,-15.2255,-15.2235,-15.2205,-15.2223,-15.2429,-15.2459,-15.2338,-15.27,-15.2566,-15.2595,-15.2673,-15.2715,-15.2747,-15.2735,-15.2198,0,0,0,0,0,-15.1534,-15.1738,-15.1702,-15.1742,-15.1936,-15.2102,-15.2126,-15.2108,-15.2015,-15.2112,-15.2135,-15.2064,-15.2388,-15.228,-15.2318,-15.2453,-15.2775,-15.2795,-15.2815,-15.2973,-15.3016,-15.3053,0,0,0,0,0,0,-15.155,-15.1599,-15.1696,-15.1769,-15.1812,-15.2094,-15.1932,-15.1932,-15.2004,-15.1988,-15.2063,-15.2067,-15.2052,-15.2259,-15.2293,-15.2422,-15.2186,-15.2783,-15.28,-15.2816,-15.2988,-15.3023,-15.3054,0,0,0,0,0,-15.1562,-15.1601,-15.1918,-15.1766,-15.1804,-15.1829,-15.1924,-15.1923,-15.1978,-15.2013,-15.2015,-15.1958,-15.2056,-15.2083,-15.2279,-15.2407,-15.2163,-15.2175,-15.2794,-15.2808,-15.2821,-15.3005,0,0,0,0,0,0,-15.1571,-15.16,-15.1925,-15.1935,-15.1688,-15.1813,-15.1832,-15.1916,-15.1997,-15.2002,-15.1905,-15.1892,-15.2062,-15.2082,-15.2103,-15.2404,-15.2143,-15.2156,-15.2164,-15.2805,-15.2816,-15.2826,0,0,0,0,0,0,-15.1579,-15.161,-15.193,-15.1832,-15.1832,-15.1798,-15.1815,-15.1977,-15.1999,-15.1884,-15.1876,-15.1899,-15.2027,-15.2082,-15.2098,-15.2351,-15.2128,-15.2141,-15.2149,-15.2155,-15.2814,-15.2822,0,0,0,0,0,0,-15.1592,-15.1618,-15.1829,-15.1829,-15.1828,-15.1945,-15.194,-15.2138,-15.192,-15.1882,-15.1899,-15.189,-15.203,-15.2045,-15.2095,-15.2342,-15.2349,-15.2128,-15.2137,-15.2143,-15.2147,0,0,0,0,0,0,0,-15.1602,-15.1429,-15.1862,-15.1826,-15.1825,-15.2034,-15.2037,-15.204,-15.1917,-15.1909,-15.1901,-15.1894,-15.2056,-15.207,-15.2084,-15.2334,0,0,-15.2127,-15.2133,0,0,0,0,0,0,0,0,-15.1417,-15.1426,-15.1862,-15.1865,-15.1867,-15.2034,-15.2037,-15.2039,-15.1916,-15.1909,-15.1903,-15.1897,-15.206,-15.2071,-15.2082,0,0,0,0,0,0,0,0,0,0,0,0,0,0,0,-15.1863,-15.1865,0,-15.2035,-15.2037,-15.2038,-15.1915,-15.191,-15.1904,-15.1899,-15.2063,-15.2072,-15.2082,0,0,0,0,0,0,0,0,0,0,0,0,0,0,0,0,0,0,0,0,0,0,0,0,0,0,0,0,0,0,0,0,0,0,0,0,0,0,0,0,0,0,0,0,0,0,0,0,0,0,0,0,0,0,0,0,0,0,0,0,0,0,0,0,0,0,0,0,0]}]]]